Location: Caltech
(34.1382°N, 118.1253°W)
Time: 00:06:37
(UTC-07:00)

Cosmos 2219 Rocket - Visible Passes

Search period start: 25 June 2016 00:00
Search period end: 05 July 2016 00:00
Orbit: 830 x 845 km, 71.0° (Epoch: 24 June)

Date Brightness Start Highest point End Pass type
(mag) Time Alt. Az. Time Alt. Az. Time Alt. Az.
25 Jun 2.2 23:14:44 10° NNW 23:20:07 69° NE 23:20:07 69° NE visible
26 Jun 4.6 01:01:26 10° WNW 01:01:50 11° W 01:01:50 11° W visible
26 Jun 2.2 22:58:25 10° NNW 23:03:59 64° ENE 23:04:09 63° ENE visible
27 Jun 4.5 00:44:39 10° WNW 00:45:52 12° W 00:45:52 12° W visible
27 Jun 2.3 22:42:07 10° NNW 22:47:38 58° ENE 22:48:13 55° E visible
28 Jun 4.4 00:27:57 10° WNW 00:29:56 14° W 00:29:56 14° W visible
28 Jun 2.4 22:25:49 10° N 22:31:18 54° ENE 22:32:19 47° ESE visible
29 Jun 4.3 00:11:20 10° WNW 00:14:02 16° W 00:14:02 16° W visible
29 Jun 2.6 22:09:32 10° N 22:14:57 49° ENE 22:16:27 39° ESE visible
29 Jun 4.1 23:54:45 10° WNW 23:58:10 18° W 23:58:10 18° W visible
30 Jun 2.7 21:53:15 10° N 21:58:36 45° ENE 22:00:38 32° ESE visible
30 Jun 4.0 23:38:13 10° NW 23:42:08 20° W 23:42:21 20° WSW visible
01 Jul 2.8 21:36:58 10° N 21:42:16 42° ENE 21:44:51 26° ESE visible
01 Jul 3.9 23:21:41 10° NW 23:25:51 22° W 23:26:35 21° WSW visible
02 Jul 2.9 21:20:42 10° N 21:25:55 38° ENE 21:29:06 21° ESE visible
02 Jul 3.8 23:05:12 10° NW 23:09:34 24° WSW 23:10:50 22° WSW visible
03 Jul 3.0 21:04:26 10° N 21:09:34 35° ENE 21:13:25 16° ESE visible
03 Jul 3.7 22:48:44 10° NW 22:53:16 26° WSW 22:55:09 21° SW visible
04 Jul 3.1 20:48:11 10° N 20:53:12 33° ENE 20:57:45 12° ESE visible
04 Jul 3.7 22:32:16 10° NW 22:36:58 28° WSW 22:39:30 20° SW visible
